GW3513 Weather Reports


Display with metric or nautical units.
time (UTC)temp
F
wind
direction
speed
MPH
gust
MPH
rain 1hr
in
rain 24hr
in
rain mn
in
humidity
%
barometer
mb
20260906053533 77 161 0.0 0.0 0.00 0.00 0.00 74 1017.4
20260906053028 77 161 0.0 0.0 0.00 0.00 0.00 74 1017.4
20260906052524 77 161 0.0 0.0 0.00 0.00 0.00 73 1017.2
20260906052021 77 161 0.0 0.0 0.00 0.00 0.00 73 1017.2
20260906051516 78 161 0.0 0.0 0.00 0.00 0.00 73 1017.4
20260906051012 78 161 0.0 0.0 0.00 0.00 0.00 72 1017.1
20260906050512 78 161 0.0 0.0 0.00 0.00 0.00 71 1017.3
20260906050006 78 161 0.0 0.0 0.00 0.00 0.00 71 1017.3
20260906045504 78 161 0.0 0.0 0.00 0.00 0.00 71 1017.0
20260906044955 78 161 0.0 0.0 0.00 0.00 0.00 70 1017.3
20260906044450 78 161 0.0 0.0 0.00 0.00 0.00 71 1017.2
20260906043946 79 161 0.0 0.0 0.00 0.00 0.00 70 1017.2
20260906043441 80 161 0.0 0.0 0.00 0.00 0.00 69 1017.1
20260906042937 80 161 0.0 0.0 0.00 0.00 0.00 67 1017.3
20260906042436 80 161 0.0 0.0 0.00 0.00 0.00 65 1017.2
20260906041931 80 161 0.0 0.0 0.00 0.00 0.00 66 1017.3
20260906041427 81 161 0.0 0.0 0.00 0.00 0.00 66 1017.1
20260906040926 81 161 0.0 0.0 0.00 0.00 0.00 65 1017.1
20260906040421 81 161 0.0 0.0 0.00 0.00 0.00 64 1017.0
20260906035911 82 161 0.0 0.0 0.00 0.00 0.00 63 1017.0
20260906035406 82 161 0.0 0.0 0.00 0.00 0.00 63 1016.8
20260906034902 82 161 0.0 0.0 0.00 0.00 0.00 62 1016.8
20260906034356 82 161 0.0 0.0 0.00 0.00 0.00 61 1016.9
20260906033852 82 161 0.0 0.0 0.00 0.00 0.00 61 1017.0
20260906033351 83 161 0.0 0.0 0.00 0.00 0.00 61 1017.0
20260906032848 83 161 0.0 0.0 0.00 0.00 0.00 60 1017.1
20260906032343 83 161 0.0 0.0 0.00 0.00 0.00 60 1017.0
20260906031838 83 161 0.0 0.0 0.00 0.00 0.00 60 1017.0
20260906031334 83 161 0.0 0.0 0.00 0.00 0.00 59 1017.1
20260906030833 83 161 0.0 0.0 0.00 0.00 0.00 60 1017.0
20260906030328 82 161 0.0 0.0 0.00 0.00 0.00 60 1017.0
20260906025823 82 161 0.0 0.0 0.00 0.00 0.00 60 1016.6
20260906025317 82 161 0.0 0.0 0.00 0.00 0.00 60 1016.7
20260906024816 83 161 0.0 0.0 0.00 0.00 0.00 59 1016.7
20260906024315 83 161 0.0 0.0 0.00 0.00 0.00 58 1016.6
20260906023811 84 161 0.0 0.0 0.00 0.00 0.00 57 1016.6
20260906023306 84 161 0.0 0.0 0.00 0.00 0.00 57 1016.7
20260906022801 84 161 0.0 0.0 0.00 0.00 0.00 58 1016.7
20260906022257 84 161 0.0 0.0 0.00 0.00 0.00 56 1016.5
20260906021752 84 161 0.0 0.0 0.00 0.00 0.00 56 1016.6
20260906021246 85 161 0.0 0.0 0.00 0.00 0.00 55 1016.5
20260906020741 85 161 0.0 0.0 0.00 0.00 0.00 56 1016.2
20260906020235 84 161 0.0 0.0 0.00 0.00 0.00 56 1016.3
20260906015730 84 161 0.0 0.0 0.00 0.00 0.00 56 1016.2
20260906015228 84 161 0.0 0.0 0.00 0.00 0.00 56 1016.4
20260906014723 84 161 0.0 0.0 0.00 0.00 0.00 57 1016.3
20260906014219 84 161 0.0 0.0 0.00 0.00 0.00 58 1016.0
20260906013715 84 161 0.0 0.0 0.00 0.00 0.00 57 1015.9
20260906013214 85 161 0.0 0.0 0.00 0.00 0.00 55 1015.8
20260906012709 85 161 0.0 0.0 0.00 0.00 0.00 56 1015.7
20260906012204 86 161 0.0 0.0 0.00 0.00 0.00 55 1015.8
20260906011659 86 161 0.0 0.0 0.00 0.00 0.00 53 1015.8
20260906011154 87 161 0.0 0.0 0.00 0.00 0.00 52 1016.0
20260906010650 87 161 0.0 0.0 0.00 0.00 0.00 53 1015.7
20260906010146 88 161 0.0 0.0 0.00 0.00 0.00 54 1015.9
20260906005645 89 161 0.0 0.0 0.00 0.00 0.00 52 1015.7
20260906005144 89 161 0.0 0.0 0.00 0.00 0.00 50 1015.6
20260906004643 90 161 0.0 0.0 0.00 0.00 0.00 48 1015.8
20260906004139 91 161 0.0 0.0 0.00 0.00 0.00 47 1015.6
20260906003634 93 161 0.0 0.0 0.00 0.00 0.00 46 1015.4
20260906003130 93 161 0.0 0.0 0.00 0.00 0.00 44 1015.6
20260906002625 95 161 0.0 0.0 0.00 0.00 0.00 42 1015.7
20260906002119 95 161 0.0 0.0 0.00 0.00 0.00 41 1015.7
20260906001615 95 161 0.0 0.0 0.00 0.00 0.00 41 1015.6
20260906001109 96 161 0.0 0.0 0.00 0.00 0.00 41 1015.5
20260906000605 97 161 0.0 0.0 0.00 0.00 0.00 39 1015.5
20260906000100 99 161 0.0 0.0 0.00 0.00 0.00 39 1015.7
20260905235559 99 161 0.0 0.0 0.00 0.00 0.00 37 1015.6
20260905235054 101 161 0.0 0.0 0.00 0.00 0.00 36 1015.6
20260905234550 102 161 0.0 0.0 0.00 0.00 0.00 35 1015.6
20260905234045 102 161 0.0 0.0 0.00 0.00 0.00 34 1015.6
20260905233544 103 161 0.0 0.0 0.00 0.00 0.00 34 1015.5
20260905233044 105 161 0.0 0.0 0.00 0.00 0.00 34 1015.5
20260905232540 106 161 0.0 0.0 0.00 0.00 0.00 31 1015.5
20260905232035 111 162 0.0 0.0 0.00 0.00 0.00 28 1015.5
20260905231530 114 162 0.0 0.0 0.00 0.00 0.00 28 1015.5
20260905231027 114 162 0.0 0.0 0.00 0.00 0.00 26 1015.5
20260905230526 114 162 0.0 0.0 0.00 0.00 0.00 26 1015.5
20260905230025 116 162 0.0 0.0 0.00 0.00 0.00 25 1015.4
20260905225519 116 162 0.0 0.0 0.00 0.00 0.00 25 1015.4
20260905225015 116 162 0.0 0.0 0.00 0.00 0.00 26 1015.3
20260905224509 118 162 0.0 0.0 0.00 0.00 0.00 24 1015.3
20260905224008 120 162 0.0 0.0 0.00 0.00 0.00 24 1015.3
20260905223501 121 162 0.0 0.0 0.00 0.00 0.00 23 1015.5
20260905222956 124 162 0.0 0.0 0.00 0.00 0.00 22 1015.4
20260905222456 124 162 0.0 0.0 0.00 0.00 0.00 22 1015.4
20260905221951 122 162 0.0 0.0 0.00 0.00 0.00 22 1015.4
20260905221448 126 162 0.0 0.0 0.00 0.00 0.00 22 1015.5
20260905220944 125 162 0.0 0.0 0.00 0.00 0.00 21 1015.5
20260905220440 125 162 0.0 0.0 0.00 0.00 0.00 21 1015.6
20260905215938 124 162 0.0 0.0 0.00 0.00 0.00 21 1015.7
20260905215434 125 162 0.0 0.0 0.00 0.00 0.00 22 1015.6
20260905214930 126 162 0.0 0.0 0.00 0.00 0.00 21 1015.5
20260905214425 126 162 0.0 0.0 0.00 0.00 0.00 21 1015.7
20260905213920 127 162 0.0 0.0 0.00 0.00 0.00 21 1015.8
20260905213416 126 162 0.0 0.0 0.00 0.00 0.00 21 1015.7
20260905212911 125 162 0.0 0.0 0.00 0.00 0.00 21 1015.8
20260905212406 123 162 0.0 0.0 0.00 0.00 0.00 22 1015.7
20260905211905 122 162 0.0 0.0 0.00 0.00 0.00 22 1015.8
20260905211401 124 162 0.0 0.0 0.00 0.00 0.00 22 1016.0
20260905210857 122 162 0.0 0.0 0.00 0.00 0.00 22 1016.2
20260905210356 121 162 0.0 0.0 0.00 0.00 0.00 22 1016.0
20260905205855 117 162 0.0 0.0 0.00 0.00 0.00 24 1016.0
20260905205350 115 161 0.0 0.0 0.00 0.00 0.00 26 1016.5
20260905204844 114 162 0.0 0.0 0.00 0.00 0.00 26 1016.4
20260905204341 114 161 0.0 0.0 0.00 0.00 0.00 26 1016.6
20260905203838 120 162 0.0 0.0 0.00 0.00 0.00 24 1016.5
20260905203335 124 162 0.0 1.0 0.00 0.00 0.00 23 1016.6
20260905202825 130 162 0.0 0.0 0.00 0.00 0.00 21 1016.7
20260905202319 133 162 0.0 0.0 0.00 0.00 0.00 20 1016.8
20260905201815 131 161 0.0 0.0 0.00 0.00 0.00 20 1016.8
20260905201310 128 161 0.0 0.0 0.00 0.00 0.00 21 1017.0
20260905200804 127 162 0.0 0.0 0.00 0.00 0.00 21 1016.9
20260905200301 127 161 0.0 0.0 0.00 0.00 0.00 21 1016.8
20260905195759 127 161 0.0 0.0 0.00 0.00 0.00 21 1017.0
20260905195254 125 161 0.0 0.0 0.00 0.00 0.00 21 1017.1
20260905194749 125 161 0.0 0.0 0.00 0.00 0.00 22 1017.1
20260905194249 122 161 0.0 0.0 0.00 0.00 0.00 23 1017.2
20260905193749 123 161 0.0 0.0 0.00 0.00 0.00 24 1017.4
20260905193243 117 161 0.0 0.0 0.00 0.00 0.00 26 1017.3
20260905192738 114 162 0.0 0.0 0.00 0.00 0.00 29 1017.3
20260905192235 116 161 0.0 0.0 0.00 0.00 0.00 28 1017.5
20260905191735 118 161 0.0 0.0 0.00 0.00 0.00 26 1017.7
20260905191233 117 161 0.0 0.0 0.00 0.00 0.00 27 1017.6
20260905190732 116 161 0.0 0.0 0.00 0.00 0.00 29 1017.7
20260905190231 122 161 0.0 0.0 0.00 0.00 0.00 25 1017.6
20260905185730 125 161 0.0 0.0 0.00 0.00 0.00 23 1017.9
20260905185225 124 161 0.0 0.0 0.00 0.00 0.00 23 1017.8
20260905184724 123 161 0.0 0.0 0.00 0.00 0.00 24 1018.0
20260905184224 120 161 0.0 0.0 0.00 0.00 0.00 24 1018.0
20260905183718 118 161 0.0 0.0 0.00 0.00 0.00 26 1017.8
20260905183214 119 161 0.0 0.0 0.00 0.00 0.00 26 1018.2
20260905182712 121 161 0.0 0.0 0.00 0.00 0.00 25 1018.2
20260905182212 121 161 0.0 0.0 0.00 0.00 0.00 24 1018.1
20260905181708 119 161 0.0 0.0 0.00 0.00 0.00 26 1018.5
20260905181201 118 161 0.0 0.0 0.00 0.00 0.00 26 1018.2
20260905180656 117 161 0.0 0.0 0.00 0.00 0.00 27 1018.5
20260905180151 114 161 0.0 0.0 0.00 0.00 0.00 30 1018.7
20260905175650 114 161 0.0 0.0 0.00 0.00 0.00 29 1018.9
20260905175146 118 161 0.0 0.0 0.00 0.00 0.00 27 1018.6
20260905174641 118 161 0.0 0.0 0.00 0.00 0.00 27 1018.9
20260905174137 115 161 0.0 0.0 0.00 0.00 0.00 29 1018.9
20260905173633 117 161 0.0 0.0 0.00 0.00 0.00 27 1019.0
20260905173128 116 161 0.0 0.0 0.00 0.00 0.00 29 1019.1
20260905172627 116 161 0.0 0.0 0.00 0.00 0.00 29 1019.1
20260905172122 117 161 0.0 0.0 0.00 0.00 0.00 28 1019.0
20260905171618 115 161 0.0 0.0 0.00 0.00 0.00 30 1019.3
20260905171113 115 161 0.0 0.0 0.00 0.00 0.00 30 1019.4
20260905170605 114 161 0.0 0.0 0.00 0.00 0.00 30 1019.3
20260905170059 116 161 0.0 0.0 0.00 0.00 0.00 29 1019.5
20260905165549 114 161 0.0 0.0 0.00 0.00 0.00 31 1019.5
20260905165043 113 161 0.0 0.0 0.00 0.00 0.00 31 1019.4
20260905164538 113 161 0.0 0.0 0.00 0.00 0.00 31 1019.6
20260905164032 113 161 0.0 0.0 0.00 0.00 0.00 30 1019.5
20260905163529 111 161 0.0 0.0 0.00 0.00 0.00 33 1019.6
20260905163024 109 161 0.0 0.0 0.00 0.00 0.00 33 1019.6
20260905162520 111 161 0.0 0.0 0.00 0.00 0.00 33 1019.7
20260905162014 110 161 0.0 0.0 0.00 0.00 0.00 33 1019.7
20260905161509 109 161 0.0 0.0 0.00 0.00 0.00 34 1019.8
20260905161006 109 161 0.0 0.0 0.00 0.00 0.00 34 1019.7
20260905160459 108 161 0.0 0.0 0.00 0.00 0.00 34 1019.8
20260905155959 106 161 0.0 0.0 0.00 0.00 0.00 36 1019.7
20260905155454 106 162 0.0 0.0 0.00 0.00 0.00 36 1019.8
20260905154953 105 161 0.0 0.0 0.00 0.00 0.00 37 1019.8
20260905154448 103 162 0.0 0.0 0.00 0.00 0.00 39 1019.7
20260905153943 104 161 0.0 0.0 0.00 0.00 0.00 38 1019.7
20260905153440 102 161 0.0 0.0 0.00 0.00 0.00 40 1019.7
20260905152934 102 162 0.0 0.0 0.00 0.00 0.00 40 1019.8
20260905152433 101 162 0.0 0.0 0.00 0.00 0.00 41 1019.6
20260905151928 100 162 0.0 0.0 0.00 0.00 0.00 42 1019.4
20260905151424 100 162 0.0 0.0 0.00 0.00 0.00 43 1019.6
20260905150919 98 162 0.0 0.0 0.00 0.00 0.00 43 1019.6
20260905150418 97 162 0.0 0.0 0.00 0.00 0.00 45 1019.4
20260905145910 98 162 0.0 0.0 0.00 0.00 0.00 45 1019.2
20260905145410 96 162 0.0 0.0 0.00 0.00 0.00 47 1019.5
20260905144909 95 162 0.0 0.0 0.00 0.00 0.00 48 1019.5
20260905144405 95 162 0.0 0.0 0.00 0.00 0.00 49 1019.2
20260905143903 96 162 0.0 0.0 0.00 0.00 0.00 47 1019.2
20260905143357 95 162 0.0 0.0 0.00 0.00 0.00 49 1019.3
20260905142852 93 162 0.0 0.0 0.00 0.00 0.00 50 1019.3
20260905142350 92 162 0.0 0.0 0.00 0.00 0.00 52 1019.0
20260905141847 92 162 0.0 0.0 0.00 0.00 0.00 52 1019.2
20260905141342 92 162 0.0 0.0 0.00 0.00 0.00 52 1019.2
20260905140837 91 162 0.0 0.0 0.00 0.00 0.00 54 1019.3
20260905140332 90 162 0.0 0.0 0.00 0.00 0.00 55 1019.2
20260905135830 89 162 0.0 0.0 0.00 0.00 0.00 56 1019.1
20260905135326 88 162 0.0 0.0 0.00 0.00 0.00 58 1019.2
20260905134821 87 162 0.0 0.0 0.00 0.00 0.00 60 1019.3
20260905134315 86 162 0.0 0.0 0.00 0.00 0.00 62 1019.3
20260905133814 85 162 0.0 0.0 0.00 0.00 0.00 63 1019.1
20260905133310 84 162 0.0 0.0 0.00 0.00 0.00 66 1019.2
20260905132809 83 162 0.0 0.0 0.00 0.00 0.00 68 1019.2
20260905132306 82 162 0.0 0.0 0.00 0.00 0.00 70 1019.1
20260905131759 82 162 0.0 0.0 0.00 0.00 0.00 70 1019.1
20260905131254 81 162 0.0 0.0 0.00 0.00 0.00 72 1019.0
20260905130749 80 162 0.0 0.0 0.00 0.00 0.00 72 1018.9
20260905130248 79 162 0.0 0.0 0.00 0.00 0.00 74 1018.9
20260905125744 78 162 0.0 0.0 0.00 0.00 0.00 75 1019.0
20260905125238 77 162 0.0 0.0 0.00 0.00 0.00 77 1018.9
20260905124735 76 162 0.0 0.0 0.00 0.00 0.00 79 1018.9
20260905124231 75 162 0.0 0.0 0.00 0.00 0.00 82 1018.9
20260905123726 75 161 0.0 0.0 0.00 0.00 0.00 82 1018.7
20260905123223 75 161 0.0 0.0 0.00 0.00 0.00 83 1018.6
20260905122722 74 161 0.0 0.0 0.00 0.00 0.00 84 1018.6
20260905122217 74 161 0.0 0.0 0.00 0.00 0.00 84 1018.4
20260905121712 74 161 0.0 0.0 0.00 0.00 0.00 84 1018.3
20260905121209 73 161 0.0 0.0 0.00 0.00 0.00 84 1018.4
20260905120707 73 160 0.0 0.0 0.00 0.00 0.00 84 1018.5
20260905120202 73 160 0.0 0.0 0.00 0.00 0.00 84 1018.4
20260905115701 73 160 0.0 0.0 0.00 0.00 0.00 84 1018.5
20260905115156 73 160 0.0 0.0 0.00 0.00 0.00 84 1018.1
20260905114656 73 160 0.0 0.0 0.00 0.00 0.00 84 1018.3
20260905114154 73 160 0.0 0.0 0.00 0.00 0.00 83 1018.2
20260905113649 73 160 0.0 0.0 0.00 0.00 0.00 83 1018.2
20260905113145 73 160 0.0 0.0 0.00 0.00 0.00 83 1018.1
20260905112644 73 160 0.0 0.0 0.00 0.00 0.00 83 1018.1
20260905112141 73 160 0.0 0.0 0.00 0.00 0.00 83 1018.2
20260905111640 74 160 0.0 0.0 0.00 0.00 0.00 83 1018.2
20260905111140 74 160 0.0 0.0 0.00 0.00 0.00 83 1018.0
20260905110638 74 160 0.0 0.0 0.00 0.00 0.00 82 1018.0
20260905110134 74 160 0.0 0.0 0.00 0.00 0.00 82 1018.1
20260905105629 74 160 0.0 0.0 0.00 0.00 0.00 81 1018.1
20260905105128 74 160 0.0 0.0 0.00 0.00 0.00 81 1017.9
20260905104623 75 160 0.0 0.0 0.00 0.00 0.00 81 1018.0
20260905104119 74 160 0.0 0.0 0.00 0.00 0.00 81 1018.0
20260905103614 75 160 0.0 0.0 0.00 0.00 0.00 81 1018.0
20260905103110 74 160 0.0 0.0 0.00 0.00 0.00 80 1017.9
20260905102605 75 160 0.0 0.0 0.00 0.00 0.00 80 1017.9
20260905102102 75 160 0.0 0.0 0.00 0.00 0.00 80 1017.9
20260905101600 75 160 0.0 0.0 0.00 0.00 0.00 80 1017.7
20260905101058 75 160 0.0 0.0 0.00 0.00 0.00 79 1018.0
20260905100549 75 160 0.0 0.0 0.00 0.00 0.00 79 1017.9
20260905100049 74 160 0.0 0.0 0.00 0.00 0.00 80 1018.0
20260905095538 75 160 0.0 0.0 0.00 0.00 0.00 79 1018.0
20260905095033 75 160 0.0 0.0 0.00 0.00 0.00 78 1017.8
20260905094528 75 160 0.0 0.0 0.00 0.00 0.00 77 1017.7
20260905094027 75 160 0.0 0.0 0.00 0.00 0.00 77 1017.9
20260905093522 76 160 0.0 0.0 0.00 0.00 0.00 77 1017.5
20260905093018 76 160 0.0 0.0 0.00 0.00 0.00 77 1017.7
20260905092513 76 160 0.0 0.0 0.00 0.00 0.00 76 1017.8
20260905092009 76 160 0.0 0.0 0.00 0.00 0.00 76 1017.6
20260905091508 76 160 0.0 0.0 0.00 0.00 0.00 76 1017.6
20260905091003 76 160 0.0 0.0 0.00 0.00 0.00 76 1017.4
20260905090457 76 160 0.0 0.0 0.00 0.00 0.00 75 1017.7
20260905085956 77 160 0.0 0.0 0.00 0.00 0.00 75 1017.6
20260905085455 77 161 0.0 0.0 0.00 0.00 0.00 74 1017.7
20260905084952 77 161 0.0 0.0 0.00 0.00 0.00 74 1017.5
20260905084451 77 161 0.0 0.0 0.00 0.00 0.00 74 1017.5
20260905083945 77 161 0.0 0.0 0.00 0.00 0.00 74 1017.3
20260905083441 77 161 0.0 0.0 0.00 0.00 0.00 74 1017.5
20260905082937 77 161 0.0 0.0 0.00 0.00 0.00 74 1017.5
20260905082433 77 161 0.0 0.0 0.00 0.00 0.00 73 1017.5
20260905081928 77 161 0.0 0.0 0.00 0.00 0.00 73 1017.8
20260905081427 78 161 0.0 0.0 0.00 0.00 0.00 72 1017.5
20260905080926 78 161 0.0 0.0 0.00 0.00 0.00 72 1017.6
20260905080421 78 161 0.0 0.0 0.00 0.00 0.00 72 1017.7
20260905075920 78 161 0.0 0.0 0.00 0.00 0.00 72 1017.6
20260905075415 78 161 0.0 0.0 0.00 0.00 0.00 72 1017.6
20260905074914 78 161 0.0 0.0 0.00 0.00 0.00 72 1017.5
20260905074409 78 161 0.0 0.0 0.00 0.00 0.00 71 1017.3
20260905073905 78 161 0.0 0.0 0.00 0.00 0.00 71 1017.6
20260905073400 78 161 0.0 0.0 0.00 0.00 0.00 71 1017.5
20260905072855 78 161 0.0 0.0 0.00 0.00 0.00 71 1017.6
20260905072350 78 161 0.0 0.0 0.00 0.00 0.00 70 1017.6
20260905071847 79 161 0.0 0.0 0.00 0.00 0.00 70 1017.5
20260905071343 79 161 0.0 0.0 0.00 0.00 0.00 70 1017.6
20260905070842 79 161 0.0 0.0 0.00 0.00 0.00 70 1017.7
20260905070339 79 161 0.0 0.0 0.00 0.00 0.00 70 1017.7
20260905065838 79 161 0.0 0.0 0.00 0.00 0.00 69 1018.1
20260905065336 79 161 0.0 0.0 0.00 0.00 0.00 69 1017.8
20260905064832 79 161 0.0 0.0 0.00 0.00 0.00 69 1018.0
20260905064328 79 161 0.0 0.0 0.00 0.00 0.00 69 1018.0
20260905063826 79 161 0.0 0.0 0.00 0.00 0.00 69 1018.0
20260905063322 80 161 0.0 0.0 0.00 0.00 0.00 68 1018.0
20260905062818 80 161 0.0 0.0 0.00 0.00 0.00 67 1017.9
20260905062313 80 161 0.0 0.0 0.00 0.00 0.00 67 1018.0
20260905061808 80 161 0.0 0.0 0.00 0.00 0.00 67 1018.0
20260905061308 80 161 0.0 0.0 0.00 0.00 0.00 67 1017.9
20260905060802 80 161 0.0 0.0 0.00 0.00 0.00 66 1017.9
20260905060259 80 161 0.0 0.0 0.00 0.00 0.00 66 1017.9
20260905055757 80 161 0.0 0.0 0.00 0.00 0.00 66 1018.0
20260905055252 80 161 0.0 0.0 0.00 0.00 0.00 66 1017.9
20260905054747 80 161 0.0 0.0 0.00 0.00 0.00 66 1018.1
20260905054244 81 161 0.0 0.0 0.00 0.00 0.00 65 1018.0
20260905053743 81 161 0.0 0.0 0.00 0.00 0.00 65 1018.0